T7DAH EGPE-EKVG

Flight info

Callsign T7DAH
Flight time N/A
Altitude 40000
Route BONBY DCT RAKUP DCT H6107 DCT SUDUR
Aircraft A346/H-SDE2E3FGHIJ3J4J5M1RWXY/LB1D1

Departure

Time 2026-04-29 16:18
Airport Inverness Airport (EGPE)

Arrival

Time N/A
Airport Vágar Airport (EKVG)
Time Latitude Longitude Altitude Speed Heading
2026-04-29 16:05 57.53811 -4.06253 51 ft 0 kts 275°
2026-04-29 16:13 57.53811 -4.06252 50 ft 0 kts 275°
2026-04-29 16:13 57.53811 -4.06226 50 ft 2 kts 251°
2026-04-29 16:14 57.53818 -4.06202 50 ft 2 kts 226°
2026-04-29 16:14 57.53830 -4.06185 50 ft 2 kts 203°
2026-04-29 16:14 57.53845 -4.06179 51 ft 2 kts 182°
2026-04-29 16:14 57.53859 -4.06178 51 ft 2 kts 181°
2026-04-29 16:15 57.53874 -4.06177 51 ft 2 kts 184°
2026-04-29 16:15 57.53885 -4.06175 51 ft 0 kts 185°
2026-04-29 16:16 57.53883 -4.06175 51 ft 1 kts 185°
2026-04-29 16:16 57.53859 -4.06179 51 ft 7 kts 184°
2026-04-29 16:16 57.53785 -4.06156 49 ft 13 kts 145°
2026-04-29 16:16 57.53723 -4.06005 46 ft 13 kts 115°
2026-04-29 16:17 57.53744 -4.05859 44 ft 2 kts 50°
2026-04-29 16:17 57.53745 -4.05856 44 ft 1 kts 50°
2026-04-29 16:17 57.53912 -4.05489 44 ft 86 kts 49°
2026-04-29 16:17 57.54493 -4.04224 82 ft 164 kts 49°
2026-04-29 16:18 57.55201 -4.02705 1235 ft 161 kts 51°
2026-04-29 16:18 57.55981 -4.01198 2368 ft 178 kts 33°
2026-04-29 16:18 57.57214 -4.00865 3437 ft 202 kts 342°
2026-04-29 16:18 57.58350 -4.02419 4653 ft 220 kts 301°
2026-04-29 16:19 57.58911 -4.05039 5922 ft 236 kts 288°
2026-04-29 16:19 57.59773 -4.07724 7196 ft 258 kts 316°
2026-04-29 16:19 57.61306 -4.09490 8463 ft 277 kts 339°
2026-04-29 16:19 57.63161 -4.10722 9752 ft 296 kts 342°
2026-04-29 16:20 57.65067 -4.12016 10982 ft 305 kts 340°
2026-04-29 16:20 57.67080 -4.13570 12043 ft 326 kts 338°
2026-04-29 16:20 57.69184 -4.15368 12999 ft 346 kts 336°
2026-04-29 16:20 57.71390 -4.17369 13849 ft 364 kts 335°
2026-04-29 16:21 57.73691 -4.19516 14498 ft 383 kts 334°
2026-04-29 16:21 57.76128 -4.21822 15079 ft 402 kts 334°
2026-04-29 16:21 57.78686 -4.24257 15630 ft 422 kts 334°
2026-04-29 16:21 57.81325 -4.26776 16384 ft 433 kts 334°
2026-04-29 16:22 57.83998 -4.29333 17586 ft 432 kts 334°
2026-04-29 16:22 57.86641 -4.31848 18678 ft 434 kts 335°
2026-04-29 16:22 57.89381 -4.34185 19605 ft 438 kts 338°
2026-04-29 16:22 57.92239 -4.36250 20491 ft 443 kts 341°
2026-04-29 16:23 57.95149 -4.38132 21378 ft 448 kts 342°
2026-04-29 16:23 57.98080 -4.39973 22249 ft 452 kts 342°
2026-04-29 16:23 58.01081 -4.41853 23092 ft 457 kts 342°
2026-04-29 16:23 58.04107 -4.43756 23914 ft 461 kts 342°
2026-04-29 16:24 58.07152 -4.45680 24707 ft 466 kts 342°
2026-04-29 16:24 58.10200 -4.47612 25470 ft 471 kts 342°
2026-04-29 16:24 58.13307 -4.49589 26210 ft 475 kts 342°
2026-04-29 16:24 58.16431 -4.51584 26935 ft 480 kts 342°
2026-04-29 16:25 58.19604 -4.53614 27651 ft 484 kts 342°
2026-04-29 16:25 58.22785 -4.55653 28341 ft 488 kts 342°
2026-04-29 16:25 58.25997 -4.57718 29004 ft 492 kts 342°
2026-04-29 16:25 58.29276 -4.59830 29644 ft 496 kts 342°
2026-04-29 16:26 58.32545 -4.61939 30240 ft 500 kts 342°
2026-04-29 16:26 58.35827 -4.64061 30786 ft 503 kts 341°
2026-04-29 16:26 58.39150 -4.66214 31296 ft 507 kts 341°
2026-04-29 16:26 58.42489 -4.68381 31761 ft 510 kts 340°
2026-04-29 16:27 58.45823 -4.70548 32256 ft 512 kts 340°
2026-04-29 16:27 58.49167 -4.72727 32987 ft 508 kts 340°
2026-04-29 16:27 58.52465 -4.74878 33928 ft 500 kts 340°
2026-04-29 16:27 58.55743 -4.77023 34613 ft 497 kts 340°
2026-04-29 16:28 58.58983 -4.79148 35296 ft 495 kts 340°
2026-04-29 16:28 58.62206 -4.81265 36057 ft 492 kts 340°
2026-04-29 16:28 58.65408 -4.83373 36571 ft 492 kts 340°
2026-04-29 16:29 58.71855 -4.87631 36444 ft 488 kts 340°
2026-04-29 16:29 58.78241 -4.91865 36404 ft 488 kts 340°
2026-04-29 16:30 58.84637 -4.96124 36401 ft 487 kts 340°
2026-04-29 16:30 58.91034 -5.00397 36404 ft 487 kts 339°
2026-04-29 16:31 58.97379 -5.04651 36409 ft 486 kts 339°
2026-04-29 16:31 59.03772 -5.08956 36408 ft 487 kts 339°
2026-04-29 16:32 59.10123 -5.13248 36407 ft 487 kts 339°
2026-04-29 16:32 59.16491 -5.17570 36406 ft 487 kts 339°
2026-04-29 16:33 59.26065 -5.24098 36406 ft 486 kts 339°
2026-04-29 16:33 59.32379 -5.28425 36406 ft 486 kts 339°
2026-04-29 16:34 59.38777 -5.32825 36400 ft 487 kts 339°
2026-04-29 16:34 59.45123 -5.37211 36395 ft 487 kts 339°
2026-04-29 16:35 59.51500 -5.41634 36391 ft 488 kts 339°
2026-04-29 16:35 59.57861 -5.46062 36389 ft 488 kts 339°
2026-04-29 16:36 59.64225 -5.50513 36388 ft 488 kts 339°
2026-04-29 16:36 59.70619 -5.55000 36390 ft 488 kts 339°
2026-04-29 16:37 59.76968 -5.59473 36393 ft 488 kts 339°
2026-04-29 16:37 59.82250 -5.63210 36391 ft 488 kts 339°
2026-04-29 16:38 59.89681 -5.68489 36398 ft 487 kts 338°
2026-04-29 16:38 59.96051 -5.73035 36395 ft 487 kts 338°
2026-04-29 16:39 60.02371 -5.77563 36397 ft 487 kts 338°
2026-04-29 16:39 60.08734 -5.82138 36392 ft 488 kts 338°
2026-04-29 16:40 60.15111 -5.86743 36388 ft 488 kts 338°
2026-04-29 16:40 60.21434 -5.91327 35551 ft 480 kts 337°
2026-04-29 16:41 60.24505 -5.93557 34851 ft 467 kts 337°
2026-04-29 16:41 60.27532 -5.95761 34456 ft 460 kts 337°
2026-04-29 16:41 60.30509 -5.97937 33912 ft 457 kts 337°
2026-04-29 16:41 60.33453 -6.00095 33239 ft 458 kts 337°
2026-04-29 16:42 60.36467 -6.02307 32519 ft 460 kts 337°
2026-04-29 16:42 60.39441 -6.04495 31846 ft 460 kts 337°
2026-04-29 16:42 60.42448 -6.06708 31215 ft 460 kts 337°
2026-04-29 16:42 60.45421 -6.08899 30506 ft 461 kts 337°
2026-04-29 16:43 60.48427 -6.11123 29798 ft 462 kts 337°
2026-04-29 16:43 60.51403 -6.13326 29344 ft 456 kts 337°
2026-04-29 16:43 60.54331 -6.15496 28909 ft 451 kts 337°
2026-04-29 16:43 60.57250 -6.17663 28476 ft 446 kts 337°
2026-04-29 16:44 60.60152 -6.19824 28033 ft 441 kts 337°
2026-04-29 16:44 60.62983 -6.21937 27611 ft 436 kts 337°
2026-04-29 16:44 60.65813 -6.24052 27169 ft 432 kts 337°
2026-04-29 16:44 60.68601 -6.26140 26727 ft 429 kts 336°
2026-04-29 16:45 60.71404 -6.28244 26278 ft 425 kts 336°
2026-04-29 16:45 60.74147 -6.30307 25842 ft 422 kts 336°
2026-04-29 16:45 60.76863 -6.32354 25403 ft 419 kts 336°
2026-04-29 16:45 60.79579 -6.34404 24968 ft 416 kts 336°
2026-04-29 16:46 60.82276 -6.36444 24529 ft 413 kts 336°
2026-04-29 16:46 60.84969 -6.38483 24088 ft 411 kts 336°
2026-04-29 16:46 60.87609 -6.40490 23651 ft 409 kts 336°
2026-04-29 16:46 60.90269 -6.42514 23232 ft 406 kts 336°
2026-04-29 16:47 60.92889 -6.44509 22810 ft 404 kts 336°
2026-04-29 16:47 60.95494 -6.46496 22381 ft 402 kts 336°
2026-04-29 16:47 60.98123 -6.48505 21953 ft 400 kts 336°
2026-04-29 16:47 61.00659 -6.50618 21527 ft 397 kts 332°
2026-04-29 16:48 61.03155 -6.52984 21085 ft 395 kts 330°
2026-04-29 16:48 61.05635 -6.55422 20639 ft 393 kts 330°
2026-04-29 16:48 61.08066 -6.57836 20194 ft 392 kts 330°
2026-04-29 16:48 61.10535 -6.60291 19752 ft 390 kts 330°
2026-04-29 16:49 61.12971 -6.62714 19316 ft 389 kts 330°
2026-04-29 16:49 61.15403 -6.65134 18856 ft 387 kts 329°
2026-04-29 16:49 61.17789 -6.67506 18419 ft 386 kts 328°
2026-04-29 16:49 61.20216 -6.69923 17969 ft 384 kts 328°
2026-04-29 16:50 61.22597 -6.72303 17529 ft 383 kts 328°
2026-04-29 16:50 61.24973 -6.74679 17098 ft 381 kts 328°
2026-04-29 16:50 61.27333 -6.77044 16674 ft 379 kts 329°
2026-04-29 16:50 61.29705 -6.79420 16242 ft 377 kts 328°
2026-04-29 16:51 61.32043 -6.81768 15823 ft 375 kts 328°
2026-04-29 16:51 61.34391 -6.84129 15396 ft 373 kts 328°
2026-04-29 16:51 61.36684 -6.86440 14984 ft 371 kts 328°
2026-04-29 16:51 61.39010 -6.88789 14568 ft 369 kts 328°
2026-04-29 16:52 61.41313 -6.91118 14157 ft 367 kts 328°
2026-04-29 16:52 61.43576 -6.93412 13751 ft 364 kts 328°
2026-04-29 16:52 61.45848 -6.95716 13343 ft 362 kts 328°
2026-04-29 16:52 61.48087 -6.97992 12936 ft 360 kts 328°
2026-04-29 16:53 61.50336 -7.00164 12523 ft 360 kts 332°
2026-04-29 16:53 61.52660 -7.02094 12111 ft 358 kts 333°
2026-04-29 16:53 61.54968 -7.03922 11701 ft 356 kts 334°
2026-04-29 16:53 61.57286 -7.05746 11288 ft 354 kts 334°
2026-04-29 16:54 61.59564 -7.07561 10886 ft 350 kts 333°
2026-04-29 16:54 61.61735 -7.09597 10698 ft 337 kts 329°
2026-04-29 16:54 61.63784 -7.11710 10587 ft 323 kts 327°
2026-04-29 16:54 61.65754 -7.13792 10478 ft 311 kts 327°
2026-04-29 16:55 61.67654 -7.15805 10379 ft 299 kts 327°
2026-04-29 16:55 61.69518 -7.17568 10220 ft 295 kts 333°
2026-04-29 16:55 61.71462 -7.18941 9895 ft 297 kts 339°
2026-04-29 16:55 61.73471 -7.19884 9568 ft 300 kts 345°
2026-04-29 16:56 61.75541 -7.20385 9243 ft 302 kts 352°
2026-04-29 16:56 61.77646 -7.20472 8924 ft 302 kts 355°
2026-04-29 16:56 61.79729 -7.20420 8620 ft 301 kts 356°
2026-04-29 16:56 61.81809 -7.20347 8425 ft 295 kts 356°
2026-04-29 16:57 61.83815 -7.20284 8331 ft 284 kts 355°